Regional Weather Roundup
Issued by NWS Sterling, VA

Home | Current Version | Previous Version | Graphics & Text | Print | Product List | Glossary On
Versions: 1 2 3 4 5 6 7 8 9 10 11 12 13 14 15 16 17 18 19 20 21 22 23 24 25 26 27 28 29 30 31 32 33 34 35 36 37 38 39 40 41 42 43 44 45 46 47 48 49 50
000
ASUS41 KLWX 201710
RWRLWX

REGIONAL WEATHER ROUNDUP
NATIONAL WEATHER SERVICE BALTIMORE MD/WASHINGTON DC
1200 PM EST MON FEB 20 2017

Note: "FAIR" indicates few or no clouds below 12,000 feet
with no significant weather and/or obstructions to visibility.
 TC=TEMPERATURE CELSIUS

 * =Non NWS site. Station does not report precipitation (e.g. rain,
    snow, etc.), thunder, or fog.

DCZ001-MDZ009-015-VAZ040>042-051-053>054-201800-
WASHINGTON METRO

CITY           SKY/WX    TMP DP  RH WIND       PRES   REMARKS
WASHINGTON NAT PTSUNNY   64  37  36 NW12G22   30.24F
DULLES         PTSUNNY   61  36  39 N16G23    30.25S
ANDREWS AFB    SUNNY     62  35  35 NW12      30.22F
FT BELVOIR     MOSUNNY   63  38  39 NW12G18   30.23F
QUANTICO       PTSUNNY   64  41  42 N8G24     30.25F
COLLEGE PARK*  SUNNY     61  32  33 N3        30.23S
LEESBURG*      MOSUNNY   61  41  48 NE13G18   30.26F
MANASSAS*      MOSUNNY   64  41  42 NW16      30.25S
GAITHERSBURG*  MOSUNNY   63  34  34 N8        30.28S

$$

MDZ006>007-011-014-201800-
BALTIMORE METRO

CITY           SKY/WX    TMP DP  RH WIND       PRES   REMARKS
BWI AIRPORT    MOSUNNY   61  32  33 NW8       30.23S
MD SCIENCE CTR   N/A     60  28  29 MISG      30.24F
MARTIN STATE   SUNNY     61  34  36 NW12G17   30.25F
ANNAPOLIS      SUNNY     57  33  40 N7        30.24F
FORT MEADE*    MOSUNNY   61  32  33 N7        30.26S

$$

MDZ012-015-019>023-201800-
MARYLAND EASTERN SHORE

CITY           SKY/WX    TMP DP  RH WIND       PRES   REMARKS
OCEAN CITY     SUNNY     60  35  39 MISG      30.20F
SALISBURY      SUNNY     61  33  35 N16G22    30.20F
BAY BRIDGE AP* SUNNY     55  34  44 N9        30.25S
EASTON*        MOSUNNY   59  30  33 N10G17    30.26F

$$

MDZ017>025-201800-
SOUTHERN MARYLAND

CITY           SKY/WX    TMP DP  RH WIND       PRES   REMARKS
PATUXENT RIVER SUNNY     58  38  47 NE13      30.24S
ST INIGOES     NOT AVBL
LEONARDTOWN*   SUNNY     59  34  38 NE6       30.25S

$$

MDZ003>005-201800-
NORTH CENTRAL MARYLAND

CITY           SKY/WX    TMP DP  RH WIND       PRES   REMARKS
FREDERICK*     SUNNY     61  36  39 N6        30.27F
HAGERSTOWN APT SUNNY     60  32  34 MISG      30.25F
WESTMINSTER*   SUNNY     55  30  38 NW3       30.25S

$$

MDZ501>502-201800-
WESTERN MARYLAND

CITY           SKY/WX    TMP DP  RH WIND       PRES   REMARKS
OAKLAND*       SUNNY     50  37  62 NW5       30.26F
CUMBERLAND*    MOSUNNY   63  36  36 N8        30.28F

$$

VAZ025>031-201800-
SHENANDOAH VALLEY

CITY           SKY/WX    TMP DP  RH WIND       PRES   REMARKS
WINCHESTER*    SUNNY     59  37  44 NW10G20   30.25S
FRONT ROYAL*   SUNNY     61  39  44 NW6       30.24F
LURAY*         SUNNY     63  41  45 E3        30.24F
NEW MARKET*    SUNNY     62  32  32 CALM      30.24F
STAUNTON*      SUNNY     59  37  42 CALM      30.25F
WAYNESBORO*    SUNNY     61  36  39 N6        30.25S

$$

WVZ021-048>050-054>055-201800-
EASTERN WEST VIRGINIA PANHANDLE

CITY           SKY/WX    TMP DP  RH WIND       PRES   REMARKS
MARTINSBURG    MOSUNNY   61  39  44 VRB6      30.25F
PETERSBURG*    SUNNY     63  39  41 CALM      30.25F

$$

VAZ036>039-050-201800-
CENTRAL FOOTHILLS

CITY           SKY/WX    TMP DP  RH WIND       PRES   REMARKS
CHARLOTTESVILL SUNNY     68  32  26 SE3       30.23F
CULPEPER*      SUNNY     66  40  38 N10       30.24F
ORANGE*        SUNNY     63  37  39 CALM      30.25F
GORDONSVILLE*  SUNNY     64  37  36 CALM      30.23F
WARRENTON*     SUNNY     65  34  30 N12       30.24F

$$

VAZ055>057-201800-
NORTH AND CENTRAL PIEDMONT

CITY           SKY/WX    TMP DP  RH WIND       PRES   REMARKS
FREDERICKSBRG* SUNNY     64  44  48 NW9       30.23F
STAFFORD*      MOSUNNY   64  41  44 NW9G18    30.28S

$$

NCZ024-NYZ072-PAZ021-071-VAZ022-071-201800-
OTHER REGIONAL OBSERVATIONS

CITY           SKY/WX    TMP DP  RH WIND       PRES   REMARKS
NEW YORK CITY  SUNNY     51  25  36 W9        30.21F
PHILADELPHIA   MOSUNNY   54  30  40 NW10G21   30.23F
PITTSBURGH     PTSUNNY   50  41  71 CALM      30.27F
ROANOKE        SUNNY     64  38  38 CALM      30.23F
RICHMOND       MOSUNNY   65  41  41 NE9       30.23F
RALEIGH        PTSUNNY   68  37  32 NE5       30.23F

$$

ANZ530>537-201800-
MARINE OBSERVATIONS

STATION/POSITION TIME  TEMP    WIND        PRES
                       AIR SEA DIR/SP/G
                 (UTC) (F)     (DEG/KT/KT) (MB)
THOMAS PT LIGHT  1700   49 40   40/ 10/ 11   N/A
BALT KEY BRIDGE  1648   55     330/ 11/ 12 1024.0S
COVE POINT       1642   48     360/  3/  6 1024.5F
LEWISETTA        1642   57 45   50/  5/  7 1023.5F
SOLOMONS ISLAND  1642   55 43   30/  9/ 12   N/A
PINEY POINT      1648          320/ 10/ 11   N/A

$$




USA.gov is the U.S. government's official web portal to all federal, state and local government web resources and services.